[[{"header":{"parameterUnit":"m.s-1","parameterCategory":1,"la1":30.2991,"la2":30.254,"lo1":-89.0895,"lo2":-89.0444,"dy":0.0017,"dx":0.0017,"nx":28,"ny":28,"refTime":"2025-03-16T09:00:00:Z","depth":0,"parameterNumber":2,"parameterNumberName":"U-component_of_WINDS"},"data":[0,0,0,0,0,0,0,0,0,0,0,0,0,0,0,0,0,0,0,0,0,0,0,0,0,0,0,0,0,0,0,0,0,0,0,0,0,0,0,0,0,0,0,0,0,0,0,0,0,0,0,0,0,0,0,0,0,0,0.1669,0.1669,0,0.1642,0.1642,0.1641,0.1635,0.1635,0.1635,0.1635,0.1608,0.1607,0.1606,0,0,0,0,0,0,0,0,0,0,0,0,0,0.1717,0.1716,0.1669,0.1669,0.1669,0.1642,0.1642,0.1641,0.1635,0.1635,0.1635,0.1635,0.1608,0.1607,0.1606,0,0,0,0,0,0,0,0,0,0,0,0,0,0.1694,0.1716,0.1669,0.1662,0.1661,0.1642,0.1642,0.1641,0.1635,0.1635,0.1635,0.1636,0.1609,0.1607,0.1606,0.1593,0,0,0.1602,0.1601,0,0,0,0,0,0,0,0,0.1695,0.1692,0.1664,0.1663,0.1662,0.1642,0.1648,0.1625,0.1635,0.1645,0.1635,0.1636,0.1619,0.1617,0.1611,0.1591,0.159,0.1602,0.1601,0.1601,0.16,0,0,0,0,0,0,0,0.1696,0.1693,0.1659,0.1663,0.1662,0.1661,0.1658,0.1644,0.1631,0.1644,0.1643,0.164,0.1619,0.1613,0.1611,0.159,0.1602,0.1601,0.16,0.1599,0.1557,0.1557,0,0,0,0,0,0,0.1699,0.1694,0.1659,0.1658,0.1679,0.166,0.1656,0.1648,0.1631,0.1629,0.164,0.164,0.1615,0.1612,0.161,0.1593,0.1601,0.1599,0.1599,0.1558,0.1557,0.1557,0,0,0,0,0,0,0.17,0.1696,0.1661,0.1676,0.1671,0.1658,0.1649,0.1647,0.1641,0.1628,0.1626,0.1636,0.1615,0.1612,0.1597,0.1592,0.1599,0.1597,0.1558,0.1558,0.1557,0.1559,0,0,0,0,0,0,0.1702,0.1697,0.1691,0.1676,0.167,0.1648,0.1649,0.1647,0.1639,0.1639,0.1624,0.1622,0.1615,0.1599,0.1596,0.159,0.1596,0.1559,0.1558,0.1557,0.1559,0.1558,0.1558,0,0,0,0,0,0.1703,0.1693,0.1691,0.1687,0.1663,0.1648,0.1645,0.1637,0.1639,0.1633,0.1625,0.1622,0.1593,0.1597,0.1594,0.1588,0.1559,0.1558,0.1557,0.1559,0.1559,0.1558,0,0,0,0,0,0,0.1708,0.169,0.1688,0.1672,0.1661,0.1646,0.1639,0.1636,0.1625,0.1625,0.1616,0.1613,0.1599,0.1592,0.1597,0.1574,0.1576,0.1574,0.1579,0.1578,0.1577,0.1579,0.1595,0,0,0,0,0,0.1707,0.1695,0.1681,0.1668,0.1663,0.1652,0.1645,0.164,0.1629,0.1624,0.1614,0.1604,0.1592,0.1585,0.1573,0.1558,0.1555,0.1552,0.1552,0.1551,0.155,0.1542,0.154,0.1555,0.1555,0.1555,0,0,0.1705,0.1694,0.1687,0.1669,0.166,0.1648,0.1648,0.1636,0.1628,0.1622,0.1608,0.16,0.1588,0.1573,0.1566,0.1567,0.1545,0.155,0.155,0.1549,0.1541,0.154,0.1538,0.1554,0.1554,0.1554,0,0,0.1695,0.1686,0.1674,0.1665,0.1651,0.1644,0.1642,0.1627,0.1622,0.1607,0.1603,0.1593,0.1574,0.1565,0.1558,0.1546,0.1543,0.1542,0.1539,0.1531,0.153,0.1529,0.1524,0.1523,0.1541,0.1541,0.1541,0,0.1694,0.1676,0.1668,0.1656,0.1649,0.1643,0.1632,0.1624,0.1607,0.1602,0.1603,0.1578,0.1569,0.1553,0.155,0.1544,0.1541,0.1544,0.153,0.1529,0.1528,0.1524,0.1522,0.1541,0.1541,0.1541,0.1541,0,0.1676,0.1664,0.1656,0.164,0.1632,0.162,0.1611,0.1603,0.1599,0.1592,0.1577,0.1567,0.1553,0.1549,0.1545,0.1532,0.1533,0.1532,0.1534,0.1527,0.1523,0.1521,0.1541,0.1541,0.1541,0.1541,0,0,0.1668,0.1648,0.1645,0.1638,0.1623,0.1614,0.1602,0.1589,0.1582,0.1571,0.1561,0.1545,0.1545,0.1537,0.1532,0.1525,0.1516,0.1526,0.1525,0.1524,0.1501,0.1502,0.15,0.1515,0.1514,0.1514,0.1502,0,0.1656,0.1635,0.1628,0.161,0.1599,0.1594,0.1584,0.1574,0.1567,0.1557,0.155,0.1538,0.1539,0.1534,0.1527,0.1519,0.1512,0.152,0.1506,0.1505,0.1509,0.1498,0.1498,0.1487,0.1501,0.1501,0.15,0,0.164,0.1628,0.161,0.1596,0.1591,0.1582,0.157,0.156,0.1549,0.1544,0.1536,0.1531,0.1519,0.1522,0.1506,0.1512,0.1506,0.1501,0.1501,0.1499,0.1502,0.1496,0.1484,0.1482,0.1498,0.1498,0.1498,0,0.1636,0.1616,0.1602,0.1596,0.158,0.1574,0.1567,0.1556,0.1548,0.1538,0.1533,0.1521,0.1514,0.1505,0.1498,0.1501,0.1483,0.1485,0.1479,0.1479,0.1475,0.1475,0.1462,0.1471,0.1471,0.1471,0.1471,0,0.1624,0.1612,0.16,0.1591,0.1579,0.1571,0.1559,0.1552,0.1542,0.1532,0.1527,0.1519,0.151,0.15,0.1494,0.1482,0.1479,0.1475,0.1474,0.1475,0.1476,0.1471,0.1472,0.1471,0.1471,0.1471,0.1471,0,0.1617,0.1608,0.1593,0.1579,0.1575,0.1566,0.1555,0.1546,0.154,0.1528,0.1524,0.1514,0.1502,0.1494,0.1479,0.1475,0.1462,0.1461,0.1466,0.1465,0.1459,0.146,0.1442,0.144,0.1451,0.1451,0.1451,0,0.1609,0.16,0.1586,0.1579,0.1572,0.1561,0.1553,0.1545,0.1537,0.1524,0.1518,0.1505,0.1495,0.1477,0.1468,0.1457,0.1455,0.145,0.1453,0.1456,0.1455,0.1456,0.1455,0.1449,0.1449,0.1449,0.1449,0,0.1597,0.1593,0.1582,0.157,0.1561,0.1551,0.1541,0.1535,0.1526,0.1518,0.1505,0.1497,0.1482,0.147,0.1458,0.1452,0.1449,0.1448,0.1446,0.1447,0.1451,0.1449,0.1464,0.1448,0.1448,0.1448,0.1448,0.1448,0.159,0.1582,0.157,0.1558,0.155,0.154,0.1532,0.1524,0.1514,0.15,0.1497,0.1484,0.1474,0.1457,0.145,0.1441,0.1441,0.1438,0.1437,0.1437,0.1437,0.1452,0.1438,0.1438,0.1438,0.1438,0.1438,0,0.1577,0.157,0.1559,0.1545,0.1535,0.1533,0.1522,0.1515,0.1503,0.1494,0.1484,0.147,0.1459,0.1449,0.1438,0.1432,0.143,0.1429,0.1429,0.1428,0.1437,0.144,0.143,0.143,0.143,0.143,0.143,0.143,0.157,0.1556,0.1551,0.1533,0.1526,0.1513,0.1507,0.1499,0.1491,0.1475,0.1466,0.146,0.145,0.1438,0.1428,0.1425,0.1421,0.142,0.1418,0.1426,0.1427,0.1428,0.1431,0.142,0.142,0.141,0.1409,0.1409]},{"header":{"parameterUnit":"m.s-1","parameterCategory":1,"la1":30.2991,"la2":30.254,"lo1":-89.0895,"lo2":-89.0444,"dy":0.0017,"dx":0.0017,"nx":28,"ny":28,"refTime":"2025-03-16T09:00:00:Z","depth":0,"parameterNumber":3,"parameterNumberName":"V-component_of_WINDS"},"data":[0,0,0,0,0,0,0,0,0,0,0,0,0,0,0,0,0,0,0,0,0,0,0,0,0,0,0,0,0,0,0,0,0,0,0,0,0,0,0,0,0,0,0,0,0,0,0,0,0,0,0,0,0,0,0,0,0,0,-2.9243,-2.9245,0,-2.9438,-2.944,-2.9443,-2.9449,-2.9447,-2.9444,-2.9442,-2.964,-2.9647,-2.9655,0,0,0,0,0,0,0,0,0,0,0,0,0,-2.8875,-2.8882,-2.9243,-2.9245,-2.9248,-2.9438,-2.9441,-2.9443,-2.9449,-2.9446,-2.9444,-2.9441,-2.9638,-2.9646,-2.9655,0,0,0,0,0,0,0,0,0,0,0,0,0,-2.9049,-2.8884,-2.9243,-2.9274,-2.9279,-2.9437,-2.9441,-2.9444,-2.945,-2.9446,-2.9443,-2.944,-2.9635,-2.9646,-2.9657,-2.9797,0,0,-2.9691,-2.9696,0,0,0,0,0,0,0,0,-2.9039,-2.9063,-2.9267,-2.9272,-2.9278,-2.9416,-2.9384,-2.9562,-2.9451,-2.9385,-2.9442,-2.9438,-2.9568,-2.9585,-2.9629,-2.9806,-2.9814,-2.9692,-2.9699,-2.9703,-2.9707,0,0,0,0,0,0,0,-2.9027,-2.9054,-2.932,-2.927,-2.9276,-2.9278,-2.9299,-2.9417,-2.9494,-2.939,-2.9391,-2.9414,-2.957,-2.9618,-2.9634,-2.9817,-2.9692,-2.9701,-2.9708,-2.9713,-3.0121,-3.0125,0,0,0,0,0,0,-2.9009,-2.9044,-2.9314,-2.9326,-2.9147,-2.9288,-2.9311,-2.9375,-2.9493,-2.9507,-2.9417,-2.9414,-2.9601,-2.962,-2.9641,-2.9814,-2.9703,-2.9714,-2.972,-3.0117,-3.0122,-3.0127,0,0,0,0,0,0,-2.9001,-2.9033,-2.9306,-2.9186,-2.922,-2.9298,-2.937,-2.9381,-2.9428,-2.9513,-2.9526,-2.9452,-2.9599,-2.9625,-2.9758,-2.9821,-2.9719,-2.9729,-3.0112,-3.0119,-3.0124,-3.0161,0,0,0,0,0,0,-2.8991,-2.903,-2.9084,-2.9187,-2.9227,-2.9421,-2.9373,-2.9387,-2.9448,-2.9445,-2.9549,-2.9563,-2.9598,-2.9742,-2.977,-2.9834,-2.9738,-3.0107,-3.0115,-3.0122,-3.0154,-3.0167,-3.0178,0,0,0,0,0,-2.8978,-2.9086,-2.9087,-2.9119,-2.9296,-2.9424,-2.9447,-2.9486,-2.9453,-2.9508,-2.9563,-2.956,-2.9809,-2.9755,-2.9787,-2.9856,-3.0103,-3.0113,-3.0122,-3.0149,-3.0165,-3.0178,0,0,0,0,0,0,-2.8987,-2.91,-2.9102,-2.9247,-2.9326,-2.9425,-2.9496,-2.9501,-2.9591,-2.9585,-2.9628,-2.9652,-2.9785,-2.9834,-2.9771,-2.9999,-2.9952,-2.9968,-2.9962,-2.9978,-2.999,-2.9976,-2.9747,0,0,0,0,0,-2.9007,-2.9102,-2.9195,-2.9313,-2.9353,-2.9418,-2.9475,-2.9498,-2.9582,-2.9615,-2.9679,-2.976,-2.9857,-2.992,-3.0014,-3.0161,-3.0184,-3.0224,-3.0236,-3.0246,-3.0259,-3.0343,-3.0362,-3.0157,-3.0157,-3.0157,0,0,-2.9047,-2.912,-2.9177,-2.9317,-2.9382,-2.948,-2.9446,-2.955,-2.9624,-2.9631,-2.9762,-2.9812,-2.9905,-3.0047,-3.0112,-3.0091,-3.0321,-3.0258,-3.0265,-3.0273,-3.0354,-3.0373,-3.0391,-3.0163,-3.0162,-3.0161,0,0,-2.9171,-2.9235,-2.9342,-2.9408,-2.9506,-2.9548,-2.9574,-2.9673,-2.9707,-2.9839,-2.9847,-2.9935,-3.01,-3.0167,-3.0223,-3.0374,-3.0375,-3.0403,-3.0467,-3.0547,-3.0563,-3.0578,-3.0633,-3.0652,-3.0416,-3.0416,-3.0416,0,-2.9208,-2.9357,-2.9396,-2.9502,-2.9564,-2.9576,-2.9685,-2.9746,-2.987,-2.9912,-2.9887,-3.0097,-3.016,-3.0319,-3.0356,-3.04,-3.0431,-3.0392,-3.0558,-3.0573,-3.0587,-3.064,-3.0661,-3.0419,-3.0419,-3.0419,-3.0418,0,-2.9399,-2.9502,-2.9576,-2.9697,-2.9767,-2.9873,-2.9929,-2.9996,-3.0013,-3.0058,-3.0193,-3.027,-3.0381,-3.042,-3.0437,-3.0581,-3.0566,-3.0549,-3.0503,-3.0609,-3.066,-3.068,-3.0423,-3.0422,-3.0421,-3.0421,0,0,-2.9533,-2.9676,-2.9703,-2.9758,-2.9868,-2.9949,-3.0056,-3.0165,-3.0222,-3.0307,-3.0399,-3.054,-3.0526,-3.0589,-3.0614,-3.0684,-3.0801,-3.0659,-3.0662,-3.0684,-3.0967,-3.0979,-3.1002,-3.0803,-3.0807,-3.081,-3.0959,0,-2.967,-2.9863,-2.9902,-3.0069,-3.0165,-3.0179,-3.0273,-3.0351,-3.0397,-3.0485,-3.0534,-3.0634,-3.0607,-3.0646,-3.0717,-3.0772,-3.0859,-3.0762,-3.0889,-3.0893,-3.0866,-3.1029,-3.1042,-3.118,-3.0979,-3.0983,-3.0985,0,-2.9855,-2.9946,-3.0123,-3.0222,-3.0264,-3.0348,-3.0452,-3.0536,-3.0625,-3.0653,-3.0725,-3.0743,-3.0856,-3.0805,-3.0961,-3.0894,-3.0949,-3.0984,-3.099,-3.1004,-3.0946,-3.1048,-3.1224,-3.1245,-3.1017,-3.1014,-3.1012,0,-2.9938,-3.0104,-3.0232,-3.0279,-3.0398,-3.0457,-3.0508,-3.0594,-3.0658,-3.0748,-3.079,-3.0893,-3.0949,-3.1028,-3.1073,-3.1031,-3.1227,-3.1179,-3.1254,-3.1253,-3.1295,-3.1292,-3.1483,-3.1328,-3.1328,-3.1328,-3.1327,0,-3.0087,-3.0195,-3.0271,-3.035,-3.0471,-3.0516,-3.0635,-3.0687,-3.0763,-3.0852,-3.087,-3.0953,-3.1007,-3.1098,-3.1134,-3.126,-3.1284,-3.1311,-3.1319,-3.131,-3.1307,-3.1347,-3.1339,-3.1333,-3.1332,-3.1331,-3.133,0,-3.0199,-3.0255,-3.0395,-3.0497,-3.0525,-3.061,-3.0697,-3.0774,-3.082,-3.0933,-3.0962,-3.1034,-3.1143,-3.1196,-3.1329,-3.1354,-3.1496,-3.1498,-3.1466,-3.147,-3.1542,-3.1535,-3.1767,-3.18,-3.1622,-3.1624,-3.1625,0,-3.0291,-3.0375,-3.0486,-3.0548,-3.0601,-3.07,-3.0765,-3.0813,-3.0881,-3.0989,-3.1054,-3.1163,-3.1253,-3.1426,-3.149,-3.1593,-3.1598,-3.1672,-3.1614,-3.1602,-3.1601,-3.1596,-3.1605,-3.1683,-3.1684,-3.1686,-3.1687,0,-3.0449,-3.0473,-3.0567,-3.0672,-3.075,-3.0835,-3.0918,-3.0967,-3.1028,-3.1103,-3.1215,-3.1285,-3.1423,-3.1531,-3.1639,-3.1693,-3.1701,-3.1705,-3.1728,-3.172,-3.1699,-3.1713,-3.1496,-3.1699,-3.1698,-3.1697,-3.1697,-3.1696,-3.0555,-3.0631,-3.0722,-3.0827,-3.0895,-3.0972,-3.105,-3.1107,-3.1201,-3.1318,-3.134,-3.1459,-3.1547,-3.1693,-3.1751,-3.1844,-3.1828,-3.1861,-3.1869,-3.1877,-3.1882,-3.1683,-3.1864,-3.1864,-3.1863,-3.1863,-3.1863,0,-3.0715,-3.0775,-3.0871,-3.0988,-3.107,-3.1071,-3.1164,-3.1233,-3.1338,-3.142,-3.1509,-3.1638,-3.1744,-3.1817,-3.1925,-3.1986,-3.1993,-3.2013,-3.2009,-3.2022,-3.1889,-3.1859,-3.2006,-3.2006,-3.2006,-3.2006,-3.2006,-3.2006,-3.0808,-3.0937,-3.0972,-3.1135,-3.1194,-3.1311,-3.1364,-3.1436,-3.1502,-3.1646,-3.1735,-3.1782,-3.1862,-3.1975,-3.2073,-3.2092,-3.2131,-3.2152,-3.2171,-3.2046,-3.2031,-3.2017,-3.1989,-3.216,-3.216,-3.2296,-3.2297,-3.2298]}]]